Regional Weather Roundup
Issued by NWS

Home | Current Version | Previous Version | Text Only | Print | Product List | Glossary Off
Versions: 1 2 3 4 5 6 7 8 9 10 11 12 13 14 15 16 17 18 19 20 21 22 23 24 25 26 27

000
ASUS45 KCYS 151810
RWRWY

WYOMING REGIONAL WEATHER ROUNDUP
NATIONAL WEATHER SERVICE CHEYENNE WY
1100 AM MST SUN JAN 15 2017

NOTE:  "FAIR" INDICATES FEW OR NO CLOUDS BELOW 12,000 FEET
WITH NO SIGNIFICANT WEATHER AND/OR OBSTRUCTIONS TO VISIBILITY.

WYZ001-151900-
YELLOWSTONE NATIONAL PARK

CITY           SKY/WX    TMP DP  RH WIND       PRES   REMARKS
LK YELLOWSTONE   N/A    -11 -14  86 CALM      30.14F
6HR MIN TEMP: -24; 6HR MAX TEMP: -11;

W YELLOWSTONE  NOT AVBL

$$
WYZ002>013-054>058-071-098>099-151900-
NORTHERN WYOMING

CITY           SKY/WX    TMP DP  RH WIND       PRES   REMARKS
JACKSON        SUNNY     -8  -9  92 CALM      30.22F
CODY           FAIR      27   9  46 SW9       30.08F WCI  18
GREYBULL       FAIR     -11 -17  75 NW6       30.18F WCI -25
6HR MIN TEMP: -22; 6HR MAX TEMP: -11;

WORLAND        FAIR      -2  -6  83 CALM      30.16S
6HR MIN TEMP: -17; 6HR MAX TEMP:  -1; 6HR PCP: TRACE;

SHERIDAN       FAIR      19  -1  41 SW6       30.06F WCI  11
6HR MIN TEMP:  -4; 6HR MAX TEMP:  21;

BUFFALO        FAIR      34  -7  17 CALM      30.06F
6HR MIN TEMP:  21; 6HR MAX TEMP:  35;

GILLETTE       FAIR      26  15  63 CALM      30.08S
6HR MIN TEMP:   2; 6HR MAX TEMP:  26;

HULETT         FAIR      28  14  54 SW6       30.08F WCI  22
NEWCASTLE      FAIR      21  10  63 CALM      30.13F

$$
WYZ014>020-022>026-101>103-151900-
CENTRAL WYOMING

CITY           SKY/WX    TMP DP  RH WIND       PRES   REMARKS
BIG PINEY      FAIR     -11 -15  82 E3        30.13F
6HR MIN TEMP: -21; 6HR MAX TEMP:  -9; 6HR PCP: TRACE;

PINEDALE       FAIR      -6 -13  71 SE6       30.13S WCI -18
DUBOIS         NOT AVBL
LANDER         FAIR       5   3  91 N3        30.13R
6HR MIN TEMP:   1; 6HR MAX TEMP:   7;

RIVERTON       FAIR      -1  -2  95 CALM      30.13F
6HR MIN TEMP: -10; 6HR MAX TEMP:   4; 6HR PCP: TRACE;

CASPER         FAIR      25  18  74 SW14      30.09F WCI  13
6HR MIN TEMP:  18; 6HR MAX TEMP:  27;

DOUGLAS        FAIR      29  21  72 NW8       30.09F WCI  21
6HR MIN TEMP:   8; 6HR MAX TEMP:  29;


$$
WYZ021-027>030-104>119-151900-
SOUTHERN WYOMING

CITY           SKY/WX    TMP DP  RH WIND       PRES   REMARKS
EVANSTON       HAZE       4  -1  80 N3        30.10S VSB 3/4
6HR MIN TEMP:  -3; 6HR MAX TEMP:  10;

ROCK SPRINGS   SNOW       8   4  83 W6        30.13F VSB 1/2 WCI  -2
6HR MIN TEMP:   5; 6HR MAX TEMP:  11; 6HR PCP: TRACE;

RAWLINS        FOG       16  14  92 CALM      30.09F VSB 1/4
6HR MIN TEMP:  15; 6HR MAX TEMP:  20;

LARAMIE        FAIR      12   8  84 W5        30.04F WCI   4
6HR MIN TEMP:   7; 6HR MAX TEMP:  14;

CHEYENNE       CLOUDY    34  23  64 W3        30.05F
6HR MIN TEMP:  21; 6HR MAX TEMP:  34;

TORRINGTON     FAIR      30  22  72 N3        30.11F
6HR MIN TEMP:  16; 6HR MAX TEMP:  30;


$$




USA.gov is the U.S. government's official web portal to all federal, state and local government web resources and services.